Atlanta Fulton, GA

8:17 PM EST on November 18, 2019 (GMT -0500)
Fulton County-Brown

Weather History for KFTY - September, 2019

Change the Weather History Date:

Friday, September 13, 2019

  Actual Average Record
Temperature  
Mean Temperature 83 °F 74 °F  
Max Temperature 97 °F 84 °F 90 °F (2005)
Min Temperature 68 °F 63 °F 52 °F (2015)
Degree Days  
Heating Degree Days 0 0  
Month to date heating degree days 0 0  
Since 1 July heating degree days 0 0  
Cooling Degree Days 18 9  
Month to date cooling degree days 218 135  
Year to date cooling degree days 1934 1572  
Growing Degree Days 32 (Base 50)    
Moisture  
Dew Point 67 °F    
Average Humidity 62    
Maximum Humidity 93    
Minimum Humidity 30    
Precipitation  
Precipitation 0.61 in 0.14 in 1.42 in (1983)
Month to date precipitation 1.51 1.64  
Year to date precipitation 31.80 37.06  
Sea Level Pressure  
Sea Level Pressure 30.16 in    
Wind  
Wind Speed 4 mph (ENE)    
Max Wind Speed 25 mph    
Max Gust Speed 36 mph    
Visibility 8 miles    
Events Fog , Rain , Thunderstorm    
T = Trace of Precipitation, MM = Missing Value Source: NWS Daily Summary

Daily Weather History Graph

Daily Weather History Graph

Search for Another Location

Airport or City:

Astronomy

Sep. 13, 2019 Rise Set
Actual Time 7:19 AM EDT 7:47 PM EDT
Civil Twilight 6:54 AM EDT 8:12 PM EDT
Nautical Twilight 6:25 AM EDT 8:42 PM EDT
Astronomical Twilight 5:55 AM EDT 9:11 PM EDT
Moon 7:57 PM EDT (9/13) 6:40 AM EDT (9/13)
Length of Visible Light 13h 17m
Length of Day
12h 27m
Full, 100% of the Moon is Illuminated
Sep 13
Full
Sep 14
Full
Sep 21
Last Quarter
Sep 28
New
Oct 5
First Quarter

Hourly Weather History & Observations

Time (EDT) Temp. Heat Index Dew Point Humidity Pressure Visibility Wind Dir Wind Speed Gust Speed Precip Events Conditions
12:53 AM 73.9 °F - 66.9 °F 79% 30.09 in 10.0 mi Calm Calm - N/A   Clear
1:53 AM 71.1 °F - 66.9 °F 87% 30.09 in 10.0 mi Calm Calm - N/A   Clear
2:53 AM 70.0 °F - 66.9 °F 90% 30.10 in 10.0 mi Calm Calm - N/A   Clear
4:53 AM 69.1 °F - 66.0 °F 90% 30.10 in 10.0 mi Calm Calm - N/A   Clear
5:53 AM 70.0 °F - 66.0 °F 87% 30.10 in 10.0 mi Calm Calm - N/A   Clear
6:53 AM 69.1 °F - 66.0 °F 90% 30.12 in 10.0 mi Calm Calm - N/A   Clear
7:53 AM 68.0 °F - 66.0 °F 93% 30.13 in 9.0 mi Calm Calm - N/A   Clear
8:53 AM 73.9 °F - 68.0 °F 82% 30.15 in 10.0 mi Calm Calm - N/A   Clear
9:53 AM 81.0 °F 83.3 °F 66.9 °F 62% 30.16 in 10.0 mi Calm Calm - N/A   Clear
10:53 AM 84.9 °F 87.1 °F 66.0 °F 53% 30.16 in 10.0 mi SW 3.5 mph - N/A   Clear
11:53 AM 89.1 °F 91.3 °F 66.0 °F 46% 30.15 in 10.0 mi Calm Calm - N/A   Clear
12:53 PM 93.0 °F 95.0 °F 64.9 °F 39% 30.14 in 10.0 mi NNE 5.8 mph - N/A   Clear
1:53 PM 93.9 °F 95.2 °F 63.0 °F 36% 30.13 in 10.0 mi Calm Calm - N/A   Clear
2:53 PM 95.0 °F 96.0 °F 63.0 °F 34% 30.11 in 10.0 mi East 9.2 mph - N/A   Clear
3:53 PM 96.1 °F 96.4 °F 61.0 °F 31% 30.08 in 10.0 mi ESE 5.8 mph - N/A   Clear
4:53 PM 93.9 °F 94.8 °F 62.1 °F 35% 30.07 in 10.0 mi SE 10.4 mph - N/A   Clear
5:53 PM 93.0 °F 94.6 °F 64.0 °F 38% 30.07 in 10.0 mi SSE 8.1 mph - N/A   Clear
6:53 PM 93.0 °F 94.2 °F 63.0 °F 37% 30.08 in 10.0 mi ESE 4.6 mph - N/A   Clear
7:41 PM 91.0 °F 93.8 °F 66.0 °F 44% 30.11 in 10.0 mi ESE 4.6 mph - N/A Thunderstorm Clear
7:53 PM 90.0 °F 92.4 °F 66.0 °F 45% 30.09 in 10.0 mi SE 5.8 mph - N/A Thunderstorm Scattered Clouds
8:15 PM 90.0 °F 92.4 °F 66.0 °F 45% 30.14 in 10.0 mi ESE 4.6 mph - N/A   Overcast
8:22 PM 89.1 °F 92.1 °F 66.9 °F 48% 30.14 in 10.0 mi ESE 5.8 mph - 0.00 in Rain , Thunderstorm Light Rain
8:39 PM 89.1 °F 91.3 °F 66.0 °F 46% 30.15 in 10.0 mi SE 6.9 mph - 0.00 in   Mostly Cloudy
8:53 PM 88.0 °F 90.3 °F 66.0 °F 48% 30.12 in 10.0 mi ESE 4.6 mph - 0.00 in Thunderstorm Scattered Clouds
9:09 PM 88.0 °F 90.3 °F 66.0 °F 48% 30.16 in 10.0 mi East 6.9 mph - N/A Thunderstorm Thunderstorm
9:53 PM 82.9 °F 85.0 °F 66.0 °F 56% 30.15 in 10.0 mi NW 4.6 mph - N/A Thunderstorm Thunderstorm
10:01 PM 82.0 °F 84.1 °F 66.0 °F 58% 30.18 in 10.0 mi NW 6.9 mph - N/A   Mostly Cloudy
10:24 PM 77.0 °F - 66.9 °F 71% 30.19 in 10.0 mi NW 8.1 mph - N/A Thunderstorm Partly Cloudy
10:44 PM 78.1 °F - 68.0 °F 71% 30.22 in 10.0 mi NE 15.0 mph - N/A Thunderstorm Thunderstorm
10:53 PM 77.0 °F - 69.1 °F 76% 30.21 in 10.0 mi NE 24.2 mph 32.2 mph N/A Thunderstorm Thunderstorm
11:02 PM 75.0 °F - 71.1 °F 87% 30.26 in 2.5 mi East 13.8 mph 31.1 mph 0.01 in Rain , Thunderstorm Light Thunderstorms and Rain
11:05 PM 73.9 °F - 71.1 °F 91% 30.26 in 1.2 mi ENE 23.0 mph 29.9 mph 0.03 in Rain , Thunderstorm Heavy Thunderstorms and Rain
11:10 PM 72.0 °F - 70.0 °F 93% 30.27 in 0.5 mi NNE 15.0 mph 35.7 mph 0.06 in Fog , Rain , Thunderstorm Heavy Thunderstorms and Rain
11:20 PM 72.0 °F - 68.0 °F 87% 30.27 in 0.8 mi ENE 8.1 mph 19.6 mph 0.16 in Rain , Thunderstorm Heavy Thunderstorms and Rain
11:34 PM 72.0 °F - 69.1 °F 91% 30.26 in 1.0 mi NNE 11.5 mph - 0.26 in Rain , Thunderstorm Heavy Thunderstorms and Rain
11:41 PM 72.0 °F - 69.1 °F 91% 30.25 in 3.0 mi NNE 12.7 mph - 0.30 in Rain , Thunderstorm Thunderstorms and Rain
11:48 PM 71.6 °F - 69.8 °F 94% 30.24 in 7.0 mi NNE 9.2 mph - 0.34 in Rain , Thunderstorm Light Thunderstorms and Rain
11:53 PM 72.0 °F - 69.1 °F 91% 30.21 in 5.0 mi NNE 6.9 mph 16.1 mph 0.37 in Rain , Thunderstorm Heavy Thunderstorms and Rain